ハリントン-ウィルソン彗星

D/1952 B1 ( Harrington-Wilson ) 1998

English version
Home page
Updated on December 26, 1997

---------------------------------------------------------------------

・ プロフィール

・ 軌道要素

Epoch 1998 Apr. 17.0 TT = JDT 2450920.5
T 1998 Apr. 11.04929 TT                                 Muraoka
q   1.8889122            (2000.0)            P               Q
n   0.14696728     Peri.  346.01136     -0.35047577     -0.89942043
a   3.5562227      Node   123.88297     +0.88670022     -0.40843385
e   0.4688431      Incl.   18.33636     +0.30154512     +0.15564278
P   6.71
>From 7 observations 1952 Jan. 30-Feb. 25, mean residual 0".49.
dP = +/- 3.6 days

・ 星図

・ 1997年 5月12日〜1998年 6月16日
・ 1998年 6月16日〜1999年 5月 2日

・ 光度変化

        m1 = 12.0 + 5 logΔ + 10.0 log r

---------------------------------------------------------------------

軌道要素は村岡健治氏の計算によるものです。
星図は StellaNavigator Ver.2.0 for Windows (アストロアーツ 編著 / アスキー出版局刊) で作成したものです。
光度グラフはComet for Windowsで作成したものです。

---------------------------------------------------------------------

Copyright(C) Seiichi Yoshida (comet@aerith.net). All rights reserved.